(9847) = 1992 EB11 = 1990 SM4 = 1990 QJ5 = 1990 SM26

Discovered at Palomar on 1990-08-25 by H. E. Holt.

Orbit

Orbit type: Main Belt

Note: WebGL enabled browser required.

epoch2024-03-31.0
epoch JD2460400.5
perihelion date2023-12-24.86061
perihelion JD2460303.36061
argument of perihelion (°)0.33065
ascending node (°)19.50506
inclination (°)2.73219
eccentricity0.2108928
perihelion distance (AU)1.8789903
Tisserand w.r.t. Jupiter3.5
ΔV w.r.t. Earth (km/sec)8.6
semimajor axis (AU)2.3811597
mean anomaly (°)26.05652
mean daily motion (°/day)0.26823850
aphelion distance (AU)2.883
period (years)3.67
P-vector [x]0.94067162
P-vector [y]0.31120893
P-vector [z]0.13522541
Q-vector [x]-0.33894483
Q-vector [y]0.84310344
Q-vector [z]0.41748413
absolute magnitude14.77
phase slope0.15
uncertainty0
referenceMPEC 2024-E123
observations used2476
oppositions22
arc length (days)12225
first opposition used1990
last opposition used2024
residual rms (arc-secs)0.63
perturbers coarse indicatorM-v
perturbers precise indicator003Ek
first observation date used1990-08-16.0
last observation date used2024-02-04.0
computer nameMPCLINUX
JD of orbit computation2456847.781506
perihelion JD uncertainty (days)3.4113E-05
argument of perihelion uncertainty (°)6.4902E-05
ascending node uncertainty (°)6.4456E-05
inclination uncertainty (°)3.6025E-06
eccentricity uncertainty 3.2229E-08
perihelion distance uncertainty (AU)7.5806E-08
Minimum Orbit Intersection Distances (in AU)
for orbit epoch: 2460400.5, reference: E2024-EC3
Mercury1.53649
Venus1.15527
Earth0.88148
Mars0.4489
Jupiter2.56952
Saturn6.62338
Uranus15.6209
Neptune27.7436

Observations

2529 total observations over interval: 1990 08 16.27222 – 2024 02 04.249125
These data are available for download (format description).

Date (UT) J2000 RA J2000 Dec Magn Location Ref
1990 08 16.27222 23 29 14.45 -07 17 07.8 18.5   809 – European Southern Observatory, La Silla MPC 18070
1990 08 16.28542 23 29 14.06 -07 17 09.6   809 – European Southern Observatory, La Silla MPC 18070
1990 08 16.29861 23 29 13.58 -07 17 11.8   809 – European Southern Observatory, La Silla MPC 18070
1990 08 20.23194 23 27 14.44 -07 27 38.1 18.4   809 – European Southern Observatory, La Silla MPC 17360
1990 08 20.24514 23 27 13.87 -07 27 40.2   809 – European Southern Observatory, La Silla MPC 17360
1990 08 20.25833 23 27 13.34 -07 27 42.4   809 – European Southern Observatory, La Silla MPC 17360
1990 08 23.43941 23 25 17.23 -07 37 32.2 17.2   675 – Palomar Mountain MPC 16972
1990 08 23.47517 23 25 15.73 -07 37 39.4   675 – Palomar Mountain MPC 16972
1990 08 25.35955 23 24 00.11 -07 43 54.3 17.2   675 – Palomar Mountain MPC 16972
1990 08 25.39792 23 23 58.42 -07 44 00.8   675 – Palomar Mountain MPC 16972
1990 08 26.20347 23 23 24.52 -07 46 36.3 18.5   809 – European Southern Observatory, La Silla MPC 17360
1990 08 26.21667 23 23 23.90 -07 46 39.3   809 – European Southern Observatory, La Silla MPC 17360
1990 08 26.22986 23 23 23.28 -07 46 42.8   809 – European Southern Observatory, La Silla MPC 17360
1990 08 27.37031 23 22 33.48 -07 50 49.6 17.2   675 – Palomar Mountain MPC 16972
1990 08 27.40330 23 22 31.89 -07 50 54.7   675 – Palomar Mountain MPC 16972
1990 09 13.17776 23 08 14.71 -08 51 09.5 16.9   809 – European Southern Observatory, La Silla MPC 17735
1990 09 13.19168 23 08 13.96 -08 51 12.1   809 – European Southern Observatory, La Silla MPC 17735
1990 09 13.20557 23 08 13.22 -08 51 15.1   809 – European Southern Observatory, La Silla MPC 17735
1990 09 14.24792 23 07 17.15 -08 54 37.4   809 – European Southern Observatory, La Silla MPC 17735
1990 09 14.26181 23 07 16.41 -08 54 40.1   809 – European Southern Observatory, La Silla MPC 17735
1990 09 14.27570 23 07 15.65 -08 54 42.8   809 – European Southern Observatory, La Silla MPC 17735
1990 09 14.32222 23 07 13.46 -08 55 02.6 16.8   675 – Palomar Mountain MPC 17112
1990 09 14.35938 23 07 11.34 -08 55 09.7   675 – Palomar Mountain MPC 17112
1990 09 16.57500 23 05 14.67 -09 01 53.7 16.5   400 – Kitami MPC 17078
1990 09 16.59236 23 05 13.68 -09 01 56.9   400 – Kitami MPC 17078
1990 09 19.31962 23 02 52.84 -09 09 36.4 17.2   675 – Palomar Mountain MPC 17112
1990 09 19.35000 23 02 51.29 -09 09 40.3   675 – Palomar Mountain MPC 17112
1990 09 21.88260 23 00 46.69 -09 15 48.4 16.5   095 – Crimea-Nauchnyi MPC 19092
1992 03 06.09722 10 42 13.07 +11 08 25.6 19.7   809 – European Southern Observatory, La Silla MPC 23835
1992 03 08.17222 10 40 13.00 +11 18 14.2 19.7   809 – European Southern Observatory, La Silla MPC 23835
1992 03 09.08958 10 39 20.88 +11 22 26.4 19.7   809 – European Southern Observatory, La Silla MPC 23835
1997 06 28.22850 18 54 54.91 -27 35 15.1 18.0   704 – Lincoln Laboratory ETS, New Mexico MPC 30197
1997 06 28.25199 18 54 53.37 -27 35 18.3 18.0   704 – Lincoln Laboratory ETS, New Mexico MPC 30197
1997 06 28.27569 18 54 51.68 -27 35 21.5 18.4   704 – Lincoln Laboratory ETS, New Mexico MPC 30197
1997 06 29.22270 18 53 49.36 -27 37 18.2   704 – Lincoln Laboratory ETS, New Mexico MPC 30197
1997 06 29.24626 18 53 47.78 -27 37 20.8   704 – Lincoln Laboratory ETS, New Mexico MPC 30197
1997 06 29.26982 18 53 46.11 -27 37 24.1   704 – Lincoln Laboratory ETS, New Mexico MPC 30197
1997 06 29.29341 18 53 44.57 -27 37 26.4   704 – Lincoln Laboratory ETS, New Mexico MPC 30197
1997 06 29.31697 18 53 42.91 -27 37 29.2   704 – Lincoln Laboratory ETS, New Mexico MPC 30197
1997 07 02.28740 18 50 23.32 -27 43 08.8   704 – Lincoln Laboratory ETS, New Mexico MPC 30197
1997 07 02.28753 18 50 23.39 -27 43 09.3   704 – Lincoln Laboratory ETS, New Mexico MPC 30197
1997 07 02.29180 18 50 23.09 -27 43 09.7   704 – Lincoln Laboratory ETS, New Mexico MPC 30197
1997 07 02.29193 18 50 23.12 -27 43 09.7   704 – Lincoln Laboratory ETS, New Mexico MPC 30197
1997 07 02.31070 18 50 21.76 -27 43 10.1   704 – Lincoln Laboratory ETS, New Mexico MPC 30197
1997 07 02.31083 18 50 21.84 -27 43 11.1   704 – Lincoln Laboratory ETS, New Mexico MPC 30197
1997 07 02.31510 18 50 21.43 -27 43 12.6   704 – Lincoln Laboratory ETS, New Mexico MPC 30197
1997 07 02.31522 18 50 21.40 -27 43 11.9   704 – Lincoln Laboratory ETS, New Mexico MPC 30197
1997 07 02.33400 18 50 20.11 -27 43 12.7   704 – Lincoln Laboratory ETS, New Mexico MPC 30197
1997 07 02.33413 18 50 20.16 -27 43 13.2   704 – Lincoln Laboratory ETS, New Mexico MPC 30197
1997 07 02.33840 18 50 19.87 -27 43 15.5   704 – Lincoln Laboratory ETS, New Mexico MPC 30197
1997 07 02.33853 18 50 19.87 -27 43 13.9   704 – Lincoln Laboratory ETS, New Mexico MPC 30197
1997 07 02.35728 18 50 18.50 -27 43 14.3   704 – Lincoln Laboratory ETS, New Mexico MPC 30197
1997 07 02.35741 18 50 18.54 -27 43 15.0   704 – Lincoln Laboratory ETS, New Mexico MPC 30197
1997 07 02.36168 18 50 18.19 -27 43 15.4   704 – Lincoln Laboratory ETS, New Mexico MPC 30197
1997 07 02.36181 18 50 18.24 -27 43 15.0   704 – Lincoln Laboratory ETS, New Mexico MPC 30197
1998 11 27.05288 08 54 28.70 +21 17 48.1   120 – Visnjan MPS 2991
1998 11 27.07369 08 54 29.08 +21 17 48.2   120 – Visnjan MPS 2991
1998 11 27.09478 08 54 29.53 +21 17 48.5 18.5   120 – Visnjan MPS 2991
1998 12 21.30796 08 52 45.25 +22 00 35.3 19.1   704 – Lincoln Laboratory ETS, New Mexico MPS 3303
1998 12 21.31855 08 52 44.93 +22 00 38.0 19.1   704 – Lincoln Laboratory ETS, New Mexico MPS 3303
1998 12 21.34006 08 52 44.29 +22 00 42.7 19.1   704 – Lincoln Laboratory ETS, New Mexico MPS 3303
1998 12 21.35099 08 52 43.62 +22 00 43.0 19.4   704 – Lincoln Laboratory ETS, New Mexico MPS 3303
1998 12 22.98088 08 51 51.87 +22 06 09.2   120 – Visnjan MPS 3303
1998 12 23.03080 08 51 50.17 +22 06 19.1 18.5   120 – Visnjan MPS 3303
1999 02 10.10117 08 03 14.20 +24 46 59.8 18.2   704 – Lincoln Laboratory ETS, New Mexico MPS 4082
1999 02 10.12217 08 03 13.22 +24 47 03.2 18.2   704 – Lincoln Laboratory ETS, New Mexico MPS 4082
1999 02 10.14318 08 03 12.05 +24 47 04.1 18.6   704 – Lincoln Laboratory ETS, New Mexico MPS 4082
1999 02 10.16425 08 03 10.90 +24 47 05.3 18.6   704 – Lincoln Laboratory ETS, New Mexico MPS 4082
1999 02 10.18541 08 03 09.57 +24 47 05.3 19.4   704 – Lincoln Laboratory ETS, New Mexico MPS 4082
1999 02 13.21655 08 00 37.34 +24 49 54.9 18.6   704 – Lincoln Laboratory ETS, New Mexico MPS 4082
1999 02 13.23048 08 00 36.53 +24 49 55.1 18.8   704 – Lincoln Laboratory ETS, New Mexico MPS 4082
1999 02 13.24437 08 00 35.86 +24 49 56.7 18.8   704 – Lincoln Laboratory ETS, New Mexico MPS 4082
1999 02 13.25846 08 00 35.19 +24 49 57.4 18.9   704 – Lincoln Laboratory ETS, New Mexico MPS 4082
1999 02 13.27235 08 00 34.49 +24 49 55.4 18.9   704 – Lincoln Laboratory ETS, New Mexico MPS 4082
2000 04 05.42330 14 21 01.60 -14 50 44.3 18.4   704 – Lincoln Laboratory ETS, New Mexico MPS 13357
2000 04 05.43767 14 21 00.90 -14 50 42.3 19.3   704 – Lincoln Laboratory ETS, New Mexico MPS 13357
2000 04 05.45204 14 21 00.19 -14 50 38.5 19.2   704 – Lincoln Laboratory ETS, New Mexico MPS 13357
2000 04 05.46641 14 20 59.47 -14 50 36.1 19.3   704 – Lincoln Laboratory ETS, New Mexico MPS 13357
2000 04 05.48106 14 20 58.73 -14 50 33.4 19.2   704 – Lincoln Laboratory ETS, New Mexico MPS 13357
2000 04 06.41137 14 20 12.58 -14 47 36.0 18.5   704 – Lincoln Laboratory ETS, New Mexico MPS 13357
2000 04 06.42537 14 20 11.89 -14 47 33.1 18.7   704 – Lincoln Laboratory ETS, New Mexico MPS 13357
2000 04 06.43938 14 20 11.09 -14 47 31.4 19.0   704 – Lincoln Laboratory ETS, New Mexico MPS 13357
2000 04 06.45338 14 20 10.40 -14 47 27.9 18.9   704 – Lincoln Laboratory ETS, New Mexico MPS 13357
2000 04 06.46737 14 20 09.68 -14 47 24.6 19.0   704 – Lincoln Laboratory ETS, New Mexico MPS 13357
2000 04 07.33886 14 19 25.84 -14 44 33.7 18.0   704 – Lincoln Laboratory ETS, New Mexico MPS 13357
2000 04 07.35296 14 19 25.00 -14 44 31.3 19.4   704 – Lincoln Laboratory ETS, New Mexico MPS 13357
2000 04 07.36706 14 19 24.39 -14 44 26.8 19.3   704 – Lincoln Laboratory ETS, New Mexico MPS 13357
